Powrót do katalogu

CZ-4 DEB

AktywnySSO
NORAD 27676·DEBRIS·🇨🇳 China

Wystrzelony Oct 14, 1999 z Taiyuan Satellite Launch Center

Loading…

Następne Przeloty (najbliższe 24 godziny)

TLE

ŚwieżeSource: Space-Track

Epoka: Sep 12, 2026, 03:05 UTC

1 27676U 99057MQ  26255.12910673  .00000378  00000-0  12452-3 0  9992
2 27676  98.6415 318.0448 0098896 352.9443   7.0347 14.41352043239205

Śledź CZ-4 DEB w czasie rzeczywistym z AllMySat

Download on the App Store